Regional Weather Roundup
Issued by NWS

Home | Current Version | Previous Version | Text Only | Print | Product List | Glossary On
Versions: 1 2 3 4 5 6 7 8 9 10 11 12 13 14 15 16 17 18 19 20 21 22 23 24 25 26 27 28 29 30 31 32 33 34 35 36 37 38 39 40 41 42 43 44 45 46 47 48 49 50
361
ASUS44 KLIX 010301
RWRLA
LOUISIANA WEATHER ROUNDUP
NATIONAL WEATHER SERVICE NEW ORLEANS LA
1000 PM CDT THU JUL 31 2014

NOTE: "FAIR" INDICATES FEW OR NO CLOUDS BELOW 12,000 FEET WITH NO
      SIGNIFICANT WEATHER AND/OR OBSTRUCTIONS TO VISIBILITY.
      SKY/WX - SKY CONDITION AND SIGNIFICANT WEATHER.
      TMP - AIR TEMPERATURE.    DP   - DEWPOINT TEMPERATURE.
      RH  - RELATIVE HUMIDITY.  PRES - PRESSURE.
      HX  - HEAT INDEX.         WCI  - WIND CHILL INDEX.

*  THESE STATIONS ARE NOT NWS OR FAA STATIONS AND ARE NOT UNDER
   NWS QUALITY CONTROL.

LAZ040-048-061>063-065-066-069-010400-
SOUTHEAST LOUISIANA

CITY           SKY/WX    TMP DP  RH WIND       PRES   REMARKS
N.O. AUDUBON     N/A     84  70  63 MISG        N/A
N.O. INTL ARPT MOCLDY    79  69  71 SE5       29.99R
N.O. LAKEFRONT PTCLDY    82  69  64 SE6       30.00R
N.O. DOWNTOWN* FAIR      82  66  57 S5        30.00R
SLIDELL        CLEAR     73  70  90 N5        29.99S
BATON ROUGE    MOCLDY    77  68  73 E7        29.98R
BOOTHVILLE     PTCLDY    79  68  69 E3        30.00S
BELLE CHASSE   MOCLDY    75  70  84 CALM      29.99R
BOGALUSA*      FAIR      75  67  76 CALM      30.02R
GALLIANO*      NOT AVBL
NEW ROADS*     FAIR      77  66  67 E5        29.99R
GONZALES*      FAIR      79  70  74 CALM      29.98R
HAMMOND*       NOT AVBL
HOUMA*         CLEAR     76  69  79 CALM      29.98S
PORT FOURCHON* CLEAR     82  70  65 SE8       30.01R

$$

LAZ041-044-053-054-010400-
SOUTHWEST LOUISIANA

CITY           SKY/WX    TMP DP  RH WIND       PRES   REMARKS
LAKE CHARLES   LGT RAIN  81  76  84 S6        29.96R
LAFAYETTE      CLOUDY    81  73  76 S3        29.98R
PATTERSON      MOCLDY    75  73  94 SE6       30.01S
SALT POINT       N/A     83  75  77 CALM      29.97R
NEW IBERIA     MOCLDY    80  72  76 CALM      29.98R
CHENAULT AIRPK LGT RAIN  80  74  83 SE6       29.98R

$$

LAZ027-028-010400-
CENTRAL LOUISIANA

CITY           SKY/WX    TMP DP  RH WIND       PRES   REMARKS
FORT POLK      MOCLDY    78  70  76 SE9       29.97R
ALEXANDRIA INT MOCLDY    78  68  71 E6        29.97R
ALEXANDRIA     MOCLDY    77  71  82 CALM      29.98R

$$

LAZ001-002-010400-
NORTHWEST LOUISIANA

CITY           SKY/WX    TMP DP  RH WIND       PRES   REMARKS
SHREVEPORT     LGT RAIN  71  68  90 NE12G17   29.97R FOG
BARKSDALE AFB  NOT AVBL
DTN SHREVEPORT HVY RAIN  69  67  93 VRB3      30.00R FOG

$$

LAZ014-016-010400-
NORTHEAST LOUISIANA

CITY           SKY/WX    TMP DP  RH WIND       PRES   REMARKS
MONROE         RAIN      72  68  87 E6        30.02R FOG
TALLULAH       CLOUDY    73  68  84 E3        30.01S

$$




USA.gov is the U.S. government's official web portal to all federal, state and local government web resources and services.